LEMUR-2-GREENBERG

Last updated on Wed Feb 14 2018 16:20:50 GMT+0000 (Coordinated Universal Time)

1 42837U 17042N 18045.20200484 .00000573 00000-0 62883-4 0 9992 2 42837 97.6073 312.2721 0011762 245.2773 114.7222 14.91324796 32025

Satellite not in orbit

LEMUR-2-GREENBERG